Regional Weather Roundup
Issued by NWS Sioux Falls, SD

Home | Current Version | Previous Version | Text Only | Print | Product List | Glossary Off
Versions: 1 2 3 4 5 6 7 8 9 10 11 12 13 14 15 16 17 18 19 20 21 22 23 24 25 26 27 28 29 30 31 32 33 34 35 36 37 38 39 40 41 42 43 44 45 46 47 48 49 50

510
ASUS43 KFSD 071402
RWRFSD

WEATHER ROUNDUP FOR SE SOUTH DAKOTA/SW MINNESOTA/NW IOWA
NATIONAL WEATHER SERVICE SIOUX FALLS SD
800 AM CST SUN FEB 07 2016

NOTE: "FAIR" INDICATES FEW OR NO CLOUDS BELOW 12,000 FEET WITH NO
SIGNIFICANT WEATHER AND OR OBSTRUCTIONS TO VISIBILITY.


SDZ038>040-050-052>070-071500-
SOUTHEAST SOUTH DAKOTA

CITY           SKY/WX    TMP DP  RH WIND       PRES   REMARKS
BROOKINGS      MOCLDY    34  26  72 W24G30    29.77S WCI  21
CHAMBERLAIN    NOT AVBL
HURON          PTCLDY    35  27  72 W22       29.86S WCI  23
MADISON        FAIR      34  32  93 W18G30    29.82S WCI  23
MITCHELL       CLOUDY    37  28  70 W21       29.90F
SIOUX FALLS    CLOUDY    35  26  69 W21G28    29.84F WCI  24
WINNER         FAIR      35  22  58 W18G29    30.01R WCI  24
YANKTON        PTCLDY    37  25  60 W23G30    29.92S
$$

MNZ071-072-080-081-089-090-097-098-071500-
SOUTHWEST MINNESOTA

CITY           SKY/WX    TMP DP  RH WIND       PRES   REMARKS
FAIRMONT       CLEAR     34  23  64 W20       29.74S WCI  22
JACKSON        CLEAR     34  23  64 W24       29.77R WCI  21
LUVERNE        CLOUDY    36  28  75 W21       29.83S
MARSHALL       PTCLDY    36  26  67 W24G31    29.75R
MONTEVIDEO     CLEAR     36  27  69 NW17G24   29.72S
PIPESTONE      CLOUDY    37  21  52 NW17G28   29.79S
REDWOOD FALLS  CLEAR     35  25  66 W23G32    29.71S WCI  23
TRACY          PTCLDY    36  27  70 W14G28    29.76R
WINDOM         CLEAR     32  27  80 W22       29.75S WCI  19
WORTHINGTON    MOCLDY    34  25  69 W22       29.80S WCI  22
$$

IAZ001>003-012>014-020>022-031-032-NEZ013-014-SDZ071-071500-
NORTHWEST IOWA

CITY           SKY/WX    TMP DP  RH WIND       PRES   REMARKS
ESTHERVILLE    CLEAR     32  25  75 W24       29.78S WCI  19
SIOUX CITY     PTCLDY    37  24  59 W13       29.92S
SPENCER        MOCLDY    34  24  67 W23       29.82R WCI  22
STORM LAKE     PTCLDY    32  28  86 W20       29.86R WCI  20
$$

ABBREVIATIONS USED IN REMARKS
   TC - TEMPERATURE IN CELSIUS
  WCI - WIND CHILL INDEX
   HX - HEAT INDEX
  VSB - VISIBILITY





USA.gov is the U.S. government's official web portal to all federal, state and local government web resources and services.